Voltar ao catálogo

STARLINK-32695

AtivoComunicaçõesVLEO
NORAD 62866·PAYLOAD·🇺🇸 United States

Lançado Feb 1, 2025 de Vandenberg Space Force Base

Loading…

Próximas Passagens (próximas 24 horas)

TLE

AtualizadoSource: CelesTrak SupGP

Época: Sep 15, 2026, 02:12 UTC

1 62866C 25022N   26258.09215278  .00067637  00000+0  19980-2 0  2581
2 62866  53.1584 325.3015 0001200  90.0011 238.4050 15.34362487    15

Acompanhe STARLINK-32695 em tempo real com AllMySat

Download on the App Store